[[{"header":{"parameterUnit":"m.s-1","parameterCategory":2,"la1":30.2991,"la2":30.254,"lo1":-89.0895,"lo2":-89.0444,"dy":0.0017,"dx":0.0017,"nx":28,"ny":28,"refTime":"2025-05-15T03:00:00:Z","depth":"0","parameterNumber":2,"parameterNumberName":"U-component_of_CURRENTS"},"data":[0,0,0,0,0,0,0,0,0,0,0,0,0,0,0,0,0,0,0,0,0,0,0,0,0,0,0,0,0,0,0,0,0,0,0,0,0,0,0,0,0,0,0,0,0,0,0,0,0,0,0,0,0,0,0,0,0,0,0.3159,0.316,0,0.324,0.3241,0.3242,0.3253,0.3252,0.3252,0.3251,0.3263,0.3264,0.3264,0,0,0,0,0,0,0,0,0,0,0,0,0,0.2908,0.2913,0.3159,0.316,0.3161,0.324,0.3241,0.3242,0.3253,0.3252,0.3251,0.3251,0.3263,0.3263,0.3264,0,0,0,0,0,0,0,0,0,0,0,0,0,0.3003,0.2914,0.3158,0.3178,0.3181,0.324,0.3241,0.3242,0.3253,0.3252,0.3251,0.3251,0.3262,0.3263,0.3265,0.3288,0,0,0.3268,0.3269,0,0,0,0,0,0,0,0,0.2998,0.3012,0.3174,0.3177,0.318,0.3238,0.3157,0.3255,0.3253,0.3223,0.3251,0.325,0.325,0.3253,0.3267,0.3288,0.3289,0.3268,0.3269,0.327,0.327,0,0,0,0,0,0,0,0.2992,0.3008,0.3188,0.3175,0.3179,0.3147,0.3161,0.3175,0.3236,0.3225,0.3227,0.3241,0.3251,0.3266,0.3267,0.3289,0.3268,0.3269,0.327,0.3271,0.3336,0.3337,0,0,0,0,0,0,0.2995,0.3003,0.3186,0.3191,0.3088,0.3153,0.3168,0.3218,0.3238,0.3242,0.3241,0.3241,0.3264,0.3265,0.3267,0.3292,0.327,0.3271,0.3271,0.3335,0.3336,0.3337,0,0,0,0,0,0,0.299,0.3012,0.3182,0.3098,0.3118,0.3159,0.3215,0.322,0.3237,0.3251,0.3253,0.3253,0.3263,0.3266,0.3292,0.3292,0.3271,0.3272,0.3334,0.3335,0.3337,0.3343,0,0,0,0,0,0,0.2983,0.301,0.3043,0.31,0.3123,0.3222,0.3216,0.3222,0.3248,0.3248,0.3262,0.3262,0.3263,0.329,0.3293,0.3293,0.3273,0.3332,0.3334,0.3336,0.3342,0.3345,0.3347,0,0,0,0,0,0.2974,0.3022,0.3045,0.3066,0.317,0.3223,0.3232,0.3254,0.3249,0.3264,0.3276,0.3262,0.3303,0.3292,0.3295,0.3296,0.3331,0.3334,0.3336,0.334,0.3344,0.3347,0,0,0,0,0,0,0.292,0.303,0.3056,0.3133,0.3177,0.3226,0.3242,0.3258,0.3281,0.3275,0.3282,0.3284,0.3309,0.3308,0.3295,0.3323,0.3312,0.3316,0.3315,0.3318,0.3321,0.3346,0.3274,0,0,0,0,0,0.293,0.3,0.3077,0.3134,0.3159,0.3201,0.3223,0.324,0.327,0.328,0.3291,0.3302,0.3323,0.3324,0.3344,0.3358,0.3395,0.336,0.3363,0.3365,0.3389,0.3444,0.3455,0.3345,0.3345,0.3345,0,0,0.2923,0.2991,0.303,0.3128,0.3161,0.3199,0.3212,0.3248,0.3273,0.3277,0.3304,0.3319,0.3334,0.3355,0.3363,0.3349,0.3419,0.3368,0.3369,0.3393,0.3448,0.3459,0.3468,0.3346,0.3346,0.3346,0,0,0.2928,0.3007,0.3057,0.31,0.3162,0.3194,0.3207,0.3259,0.3276,0.3308,0.3321,0.3345,0.3361,0.3381,0.339,0.3423,0.3441,0.3416,0.3438,0.3491,0.3501,0.3509,0.3581,0.3596,0.3405,0.3405,0.3405,0,0.2911,0.3001,0.307,0.3114,0.3148,0.3193,0.3226,0.3257,0.3306,0.3329,0.3313,0.3376,0.3377,0.3425,0.3433,0.3429,0.3472,0.3418,0.3495,0.3504,0.3514,0.3585,0.3602,0.3406,0.3406,0.3406,0.3406,0,0.2951,0.3014,0.304,0.3127,0.3162,0.3203,0.3255,0.3288,0.3305,0.3336,0.3387,0.3406,0.3443,0.3439,0.3443,0.3508,0.3524,0.35,0.3484,0.3525,0.3598,0.3615,0.3407,0.3406,0.3406,0.3406,0,0,0.294,0.3053,0.3059,0.3084,0.3177,0.3198,0.3256,0.3322,0.335,0.339,0.344,0.3473,0.349,0.3505,0.3514,0.3555,0.3647,0.3554,0.3556,0.3624,0.3791,0.3758,0.3774,0.3635,0.3637,0.364,0.3819,0,0.2951,0.3018,0.3084,0.3126,0.316,0.3226,0.3268,0.3323,0.337,0.3426,0.3473,0.3517,0.3512,0.3527,0.3573,0.3643,0.3693,0.3603,0.3744,0.375,0.3713,0.3792,0.3628,0.377,0.3836,0.3839,0.3841,0,0.2968,0.3014,0.3061,0.3123,0.3143,0.3172,0.3245,0.3293,0.3395,0.3434,0.3508,0.355,0.365,0.3613,0.3771,0.3717,0.3762,0.3803,0.3809,0.3793,0.3748,0.3739,0.3799,0.371,0.3868,0.3866,0.3864,0,0.2906,0.2989,0.3021,0.3047,0.313,0.3155,0.3201,0.329,0.3345,0.3455,0.3519,0.3618,0.3696,0.3774,0.3871,0.383,0.4039,0.3983,0.4002,0.4001,0.3898,0.3883,0.3886,0.4084,0.4084,0.4083,0.4083,0,0.2901,0.292,0.2986,0.3002,0.303,0.3094,0.3146,0.3213,0.3326,0.3409,0.3519,0.3615,0.3741,0.387,0.3921,0.4044,0.4085,0.4047,0.4053,0.3896,0.3879,0.3824,0.3795,0.409,0.4089,0.4087,0.4086,0,0.2841,0.2892,0.2922,0.2988,0.3005,0.302,0.3126,0.3175,0.3289,0.3415,0.3464,0.3658,0.3825,0.3947,0.4098,0.4122,0.411,0.4233,0.4055,0.4036,0.3935,0.3912,0.3826,0.3712,0.4292,0.4293,0.4293,0,0.2828,0.2836,0.2889,0.2915,0.2952,0.2994,0.3042,0.3145,0.3216,0.344,0.3506,0.3712,0.3854,0.4095,0.4142,0.4253,0.4122,0.4168,0.4043,0.3943,0.3923,0.3755,0.3652,0.3923,0.392,0.3918,0.3916,0,0.2807,0.2818,0.2851,0.2895,0.2934,0.2969,0.3042,0.3084,0.323,0.3347,0.3521,0.3655,0.3894,0.3956,0.4108,0.4133,0.3962,0.4124,0.4057,0.3682,0.3464,0.3351,0.3813,0.3896,0.3898,0.3899,0.39,0.3901,0.2797,0.2808,0.2852,0.2886,0.2924,0.2939,0.2937,0.3032,0.3115,0.3256,0.3445,0.358,0.3767,0.3948,0.3957,0.3859,0.3836,0.3762,0.3766,0.3622,0.3425,0.3861,0.3916,0.3918,0.3919,0.3921,0.3922,0,0.2795,0.2816,0.285,0.2866,0.2874,0.2908,0.2937,0.2913,0.2962,0.312,0.3257,0.3416,0.3517,0.3606,0.3634,0.3536,0.3334,0.3445,0.3161,0.3094,0.3528,0.3421,0.3323,0.3323,0.3323,0.3323,0.3323,0.3323,0.2797,0.282,0.2824,0.2815,0.2823,0.2753,0.2742,0.272,0.2762,0.2825,0.2887,0.304,0.3304,0.3492,0.3406,0.3296,0.3027,0.2895,0.2906,0.3217,0.3244,0.327,0.3161,0.301,0.3009,0.2289,0.2284,0.228]},{"header":{"parameterUnit":"m.s-1","parameterCategory":2,"la1":30.2991,"la2":30.254,"lo1":-89.0895,"lo2":-89.0444,"dy":0.0017,"dx":0.0017,"nx":28,"ny":28,"refTime":"2025-05-15T03:00:00:Z","depth":"0","parameterNumber":3,"parameterNumberName":"V-component_of_CURRENTS"},"data":[0,0,0,0,0,0,0,0,0,0,0,0,0,0,0,0,0,0,0,0,0,0,0,0,0,0,0,0,0,0,0,0,0,0,0,0,0,0,0,0,0,0,0,0,0,0,0,0,0,0,0,0,0,0,0,0,0,0,0.0064,0.0063,0,-0.0,-0.0001,-0.0002,-0.0054,-0.0055,-0.0055,-0.0055,-0.0156,-0.0158,-0.0161,0,0,0,0,0,0,0,0,0,0,0,0,0,0.0095,0.0094,0.0064,0.0063,0.0063,-0.0,-0.0001,-0.0003,-0.0054,-0.0055,-0.0055,-0.0055,-0.0155,-0.0158,-0.0161,0,0,0,0,0,0,0,0,0,0,0,0,0,0.0058,0.0094,0.0064,0.0032,0.0028,-0.0,-0.0001,-0.0003,-0.0054,-0.0055,-0.0055,-0.0055,-0.0154,-0.0158,-0.0161,-0.0176,0,0,-0.0172,-0.0174,0,0,0,0,0,0,0,0,0.006,0.0057,0.0037,0.0034,0.003,-0.0017,-0.0027,-0.0062,-0.0054,-0.0026,-0.0055,-0.0056,-0.011,-0.0118,-0.0133,-0.0181,-0.0185,-0.0173,-0.0175,-0.0177,-0.0178,0,0,0,0,0,0,0,0.0063,0.0059,0.0035,0.0036,0.0032,0.0005,-0.0001,-0.0034,-0.0069,-0.0029,-0.0032,-0.0034,-0.0113,-0.0129,-0.0136,-0.0187,-0.0173,-0.0176,-0.0178,-0.018,-0.0234,-0.0233,0,0,0,0,0,0,0.008,0.0062,0.0037,0.0033,0.0048,0.0005,-0.0002,-0.0004,-0.0068,-0.0076,-0.0034,-0.0036,-0.0123,-0.0131,-0.0139,-0.0131,-0.0177,-0.018,-0.0182,-0.0234,-0.0234,-0.0233,0,0,0,0,0,0,0.0081,0.0078,0.004,0.0048,0.0042,0.0005,0.0002,-0.0005,-0.0018,-0.007,-0.0081,-0.0037,-0.0123,-0.0134,-0.0156,-0.0137,-0.0182,-0.0185,-0.0235,-0.0234,-0.0233,-0.0134,0,0,0,0,0,0,0.0082,0.0079,0.008,0.005,0.0042,0.0033,0.0003,-0.0006,-0.0017,-0.0021,-0.0077,-0.0087,-0.0125,-0.015,-0.0159,-0.0143,-0.0188,-0.0236,-0.0235,-0.0233,-0.0139,-0.013,-0.0123,0,0,0,0,0,0.0083,0.0093,0.0081,0.0078,0.0046,0.0034,0.0028,-0.0003,-0.0016,-0.0017,-0.0049,-0.0085,-0.0147,-0.0152,-0.0163,-0.0147,-0.0237,-0.0235,-0.0234,-0.0142,-0.0132,-0.0123,0,0,0,0,0,0,0.0106,0.0087,0.0074,0.0076,0.0061,0.0027,0.0024,0.0005,-0.0022,-0.0026,-0.0077,-0.0088,-0.0102,-0.0138,-0.0141,-0.0159,-0.0198,-0.0198,-0.0125,-0.0115,-0.0107,-0.0084,-0.0191,0,0,0,0,0,0.0113,0.0114,0.0092,0.0094,0.009,0.0058,0.0049,0.0031,0.0005,-0.0008,-0.0043,-0.0079,-0.0105,-0.0119,-0.0153,-0.0161,-0.018,-0.0159,-0.0151,-0.0143,-0.0132,-0.0134,-0.0125,-0.0227,-0.0227,-0.0227,0,0,0.012,0.0113,0.0111,0.0099,0.0083,0.0089,0.0051,0.0044,0.0053,-0.0014,-0.0016,-0.0057,-0.0102,-0.0111,-0.012,-0.0136,-0.0125,-0.0141,-0.0135,-0.0127,-0.0132,-0.0121,-0.0112,-0.0226,-0.0226,-0.0226,0,0,0.0147,0.0132,0.0145,0.0139,0.0126,0.0112,0.0116,0.0089,0.008,0.007,0.003,0.0007,-0.0039,-0.0059,-0.0077,-0.0046,-0.0085,-0.006,0.0003,0.0001,0.001,0.0018,0.0011,0.0017,-0.0052,-0.0051,-0.0051,0,0.0156,0.0176,0.0147,0.0162,0.0172,0.0131,0.0157,0.014,0.011,0.0118,0.0082,0.0038,-0.0011,-0.0001,0.0003,-0.0026,-0.0035,-0.0027,0.0014,0.0021,0.0027,0.0018,0.0024,-0.0046,-0.0047,-0.0048,-0.0048,0,0.0194,0.0212,0.0222,0.0232,0.0234,0.0249,0.0233,0.0232,0.0214,0.02,0.0199,0.0136,0.0116,0.0093,0.0052,0.0076,0.0054,0.0023,-0.0005,0.0044,0.0031,0.0035,-0.0039,-0.0041,-0.0043,-0.0044,0,0,0.0219,0.0245,0.0252,0.0283,0.0279,0.0294,0.031,0.0329,0.0364,0.0313,0.0359,0.0287,0.0254,0.0232,0.0182,0.0171,0.019,0.012,0.0117,0.0124,0.0191,0.0166,0.0167,0.0173,0.0174,0.0175,0.0167,0,0.0265,0.0327,0.0322,0.0387,0.0424,0.0404,0.0436,0.0441,0.0436,0.0464,0.0406,0.042,0.0309,0.0316,0.028,0.0227,0.0205,0.0195,0.0134,0.0132,0.0113,0.0173,0.0127,0.0116,0.0171,0.0171,0.0172,0,0.0315,0.0357,0.0435,0.0499,0.0514,0.0545,0.0608,0.0629,0.0643,0.0643,0.0627,0.0583,0.056,0.0463,0.0379,0.0382,0.0289,0.023,0.0228,0.0175,0.0115,0.0074,0.012,-0.0067,0.0177,0.0177,0.0176,0,0.0382,0.0443,0.052,0.0537,0.0592,0.0633,0.0664,0.0691,0.0753,0.0773,0.0833,0.0755,0.0773,0.064,0.0483,0.0447,0.0395,0.0331,0.0216,0.0212,0.0145,0.0135,0.0013,0.0266,0.0266,0.0266,0.0266,0,0.0454,0.0515,0.0564,0.0609,0.0716,0.072,0.084,0.0849,0.0921,0.1033,0.0941,0.102,0.0822,0.0756,0.0565,0.0416,0.0453,0.0245,0.0218,0.0178,0.017,-0.002,-0.0129,0.0265,0.0265,0.0266,0.0266,0,0.0532,0.0555,0.0652,0.0725,0.0756,0.0839,0.0967,0.1065,0.1105,0.1255,0.1283,0.1256,0.1173,0.0951,0.0763,0.0566,0.0278,0.032,0.0282,0.0251,-0.0037,-0.0138,-0.0291,-0.0374,0.021,0.0209,0.0209,0,0.0586,0.0642,0.0745,0.0821,0.0866,0.0988,0.1091,0.1154,0.1271,0.1412,0.1508,0.1478,0.1473,0.118,0.0812,0.0491,0.0283,0.0244,0.0152,-0.0039,-0.0172,-0.0255,-0.032,0.0099,0.0098,0.0097,0.0096,0,0.0698,0.0727,0.0815,0.0957,0.1076,0.1218,0.1363,0.1479,0.1588,0.1711,0.1855,0.1865,0.1587,0.1248,0.0798,0.0552,0.0096,0.0213,0.0025,-0.0252,-0.0359,-0.0456,0.0085,0.0086,0.0087,0.0088,0.0089,0.0089,0.0794,0.0872,0.098,0.1115,0.1254,0.1431,0.1553,0.172,0.1906,0.2084,0.2092,0.2107,0.1627,0.101,0.0666,0.0013,0.0034,-0.0194,-0.0293,-0.0353,-0.0459,0.0067,0.003,0.0031,0.0032,0.0032,0.0032,0,0.0916,0.0996,0.1132,0.1294,0.1453,0.1499,0.1726,0.185,0.2061,0.2205,0.2306,0.2043,0.1449,0.0839,-0.0019,-0.0431,-0.0595,-0.0651,-0.08,-0.0835,-0.0362,-0.0394,-0.0535,-0.0535,-0.0534,-0.0534,-0.0534,-0.0534,0.0994,0.1131,0.1182,0.1431,0.1548,0.175,0.1874,0.2043,0.216,0.2295,0.2262,0.2236,0.1758,0.0292,-0.0688,-0.09,-0.1186,-0.1263,-0.1357,-0.1072,-0.1038,-0.1006,-0.1061,-0.134,-0.1341,-0.1808,-0.1813,-0.1816]}],[{"header":{"parameterUnit":"m.s-1","parameterCategory":2,"la1":30.2991,"la2":30.254,"lo1":-89.0895,"lo2":-89.0444,"dy":0.0017,"dx":0.0017,"nx":28,"ny":28,"refTime":"2025-05-15T03:00:00:Z","depth":"2","parameterNumber":2,"parameterNumberName":"U-component_of_CURRENTS"},"data":[0,0,0,0,0,0,0,0,0,0,0,0,0,0,0,0,0,0,0,0,0,0,0,0,0,0,0,0,0,0,0,0,0,0,0,0,0,0,0,0,0,0,0,0,0,0,0,0,0,0,0,0,0,0,0,0,0,0,0.3103,0.3104,0,0.3194,0.3195,0.3195,0.3214,0.3214,0.3214,0.3213,0.3232,0.3232,0.3233,0,0,0,0,0,0,0,0,0,0,0,0,0,0.2751,0.2758,0.3103,0.3104,0.3106,0.3194,0.3195,0.3196,0.3214,0.3214,0.3214,0.3213,0.3231,0.3232,0.3233,0,0,0,0,0,0,0,0,0,0,0,0,0,0.2875,0.276,0.3102,0.3129,0.3133,0.3194,0.3195,0.3196,0.3214,0.3214,0.3214,0.3213,0.3231,0.3232,0.3233,0.3247,0,0,0.3236,0.3237,0,0,0,0,0,0,0,0,0.2868,0.2887,0.3124,0.3128,0.3132,0.3197,0.3078,0.3211,0.3214,0.3178,0.3213,0.3213,0.3217,0.3219,0.3231,0.3248,0.3249,0.3236,0.3237,0.3238,0.3238,0,0,0,0,0,0,0,0.286,0.2882,0.3134,0.3126,0.3131,0.3071,0.3089,0.3102,0.3193,0.3181,0.3184,0.3202,0.3217,0.323,0.3231,0.3249,0.3236,0.3237,0.3238,0.3238,0.3284,0.3285,0,0,0,0,0,0,0.2871,0.2876,0.3131,0.3137,0.3002,0.3079,0.3099,0.3172,0.3195,0.32,0.3203,0.3203,0.3228,0.323,0.3232,0.3251,0.3238,0.3239,0.3239,0.3283,0.3284,0.3285,0,0,0,0,0,0,0.2864,0.2895,0.3128,0.3008,0.3034,0.3087,0.3168,0.3174,0.3194,0.3213,0.3215,0.3216,0.3228,0.323,0.3256,0.3252,0.3239,0.324,0.3283,0.3284,0.3284,0.3288,0,0,0,0,0,0,0.2854,0.2893,0.2938,0.3012,0.3042,0.3169,0.3169,0.3177,0.3208,0.3209,0.3225,0.3226,0.3228,0.3254,0.3257,0.3253,0.3241,0.3282,0.3283,0.3284,0.3287,0.3289,0.3291,0,0,0,0,0,0.2842,0.2917,0.2941,0.2971,0.3109,0.3171,0.318,0.3209,0.3209,0.3223,0.3237,0.3226,0.3262,0.3256,0.3259,0.3255,0.3282,0.3283,0.3284,0.3287,0.3289,0.329,0,0,0,0,0,0,0.2773,0.2929,0.2956,0.3072,0.3116,0.3176,0.3198,0.3214,0.3237,0.3236,0.3243,0.3246,0.3266,0.3265,0.3258,0.3272,0.3266,0.3268,0.3267,0.3269,0.3271,0.3293,0.3242,0,0,0,0,0,0.2786,0.29,0.2988,0.3075,0.3101,0.3146,0.3171,0.3193,0.3228,0.3239,0.3252,0.3262,0.3274,0.3276,0.3291,0.33,0.3321,0.3298,0.3299,0.33,0.3321,0.3349,0.3355,0.3289,0.3289,0.3289,0,0,0.2781,0.2882,0.2942,0.3068,0.3105,0.3146,0.316,0.3208,0.3232,0.3236,0.3267,0.3276,0.3282,0.3296,0.3303,0.3292,0.333,0.3302,0.3303,0.3323,0.3351,0.3358,0.3363,0.329,0.329,0.329,0,0,0.2808,0.2916,0.2996,0.3041,0.3116,0.315,0.3165,0.3225,0.324,0.3272,0.328,0.3292,0.331,0.3315,0.3317,0.3337,0.3345,0.3333,0.3349,0.3375,0.3381,0.3386,0.3419,0.3428,0.3323,0.3323,0.3323,0,0.2778,0.2918,0.3011,0.307,0.3105,0.3152,0.3187,0.3217,0.3272,0.3289,0.3281,0.3314,0.3318,0.3332,0.3344,0.334,0.3366,0.3337,0.3377,0.3383,0.3389,0.3422,0.3431,0.3323,0.3323,0.3323,0.3323,0,0.286,0.2941,0.2982,0.3094,0.313,0.3179,0.3227,0.326,0.328,0.3304,0.3329,0.3333,0.3353,0.3345,0.3355,0.3389,0.3399,0.3383,0.3372,0.3396,0.3429,0.3438,0.3324,0.3324,0.3324,0.3324,0,0,0.2872,0.3014,0.3024,0.3043,0.315,0.3172,0.3232,0.3289,0.33,0.3339,0.336,0.338,0.3386,0.3391,0.3388,0.3408,0.3467,0.3421,0.3422,0.3454,0.3543,0.3444,0.3445,0.3462,0.3463,0.3465,0.355,0,0.2895,0.2979,0.3067,0.3107,0.3136,0.3203,0.3239,0.3286,0.3318,0.3349,0.3372,0.3387,0.3398,0.3395,0.3426,0.3467,0.3494,0.3447,0.3517,0.352,0.3427,0.3452,0.3215,0.3262,0.356,0.3561,0.3562,0,0.2942,0.2995,0.3036,0.3091,0.311,0.3139,0.319,0.3232,0.3303,0.3327,0.337,0.3393,0.3456,0.3438,0.3534,0.3509,0.3542,0.3559,0.3562,0.3479,0.3437,0.3287,0.3269,0.3578,0.3577,0.3576,0.3575,0,0.2867,0.2966,0.2988,0.3013,0.3087,0.3111,0.3158,0.322,0.3251,0.3323,0.3354,0.3415,0.3463,0.3513,0.3594,0.357,0.3692,0.3649,0.3587,0.3581,0.3398,0.3371,0.3709,0.3708,0.3708,0.3708,0.3708,0,0.286,0.2874,0.2947,0.2948,0.2964,0.3039,0.3058,0.3116,0.3195,0.3242,0.3335,0.3385,0.3491,0.3578,0.3617,0.3651,0.3717,0.3608,0.3596,0.3391,0.3364,0.3651,0.3643,0.3711,0.371,0.371,0.3709,0,0.2772,0.283,0.2842,0.2905,0.2922,0.2927,0.3016,0.3043,0.3129,0.3202,0.324,0.3401,0.3511,0.3595,0.3695,0.3676,0.3705,0.3697,0.3457,0.3414,0.3569,0.356,0.3614,0.3611,0.3609,0.3607,0.3605,0,0.275,0.2743,0.2774,0.2786,0.2821,0.2854,0.2893,0.2993,0.3034,0.3209,0.3247,0.3397,0.3482,0.3596,0.358,0.36,0.3684,0.3384,0.3271,0.3576,0.356,0.3555,0.355,0.304,0.3034,0.3029,0.3025,0,0.2697,0.2692,0.27,0.2725,0.2759,0.2787,0.2852,0.2859,0.3001,0.3055,0.3194,0.3282,0.3409,0.3331,0.3352,0.3328,0.3351,0.3278,0.3674,0.3089,0.3038,0.3022,0.3035,0.298,0.2985,0.2988,0.2991,0.2992,0.2666,0.2644,0.2663,0.268,0.2721,0.2739,0.2713,0.2789,0.2825,0.2865,0.3027,0.3052,0.3122,0.3006,0.2944,0.2897,0.3096,0.2978,0.2992,0.3012,0.2918,0.2864,0.2759,0.2762,0.2764,0.2767,0.2769,0,0.2644,0.2632,0.2636,0.2648,0.267,0.2718,0.2704,0.2637,0.2623,0.2694,0.273,0.2523,0.249,0.2568,0.243,0.2427,0.2392,0.2339,0.2288,0.2336,0.2378,0.2249,0.1912,0.1909,0.1906,0.1904,0,0,0.2632,0.2615,0.2594,0.2609,0.2632,0.2604,0.2564,0.2423,0.2389,0.2269,0.2234,0.2355,0.2507,0.2157,0.213,0.2015,0.2153,0.1939,0.2637,0.2627,0.2665,0.2769,0.2629,0,0,0,0,0]},{"header":{"parameterUnit":"m.s-1","parameterCategory":2,"la1":30.2991,"la2":30.254,"lo1":-89.0895,"lo2":-89.0444,"dy":0.0017,"dx":0.0017,"nx":28,"ny":28,"refTime":"2025-05-15T03:00:00:Z","depth":"2","parameterNumber":3,"parameterNumberName":"V-component_of_CURRENTS"},"data":[0,0,0,0,0,0,0,0,0,0,0,0,0,0,0,0,0,0,0,0,0,0,0,0,0,0,0,0,0,0,0,0,0,0,0,0,0,0,0,0,0,0,0,0,0,0,0,0,0,0,0,0,0,0,0,0,0,0,-0.0126,-0.0126,0,-0.018,-0.0181,-0.0181,-0.0212,-0.0211,-0.0211,-0.0211,-0.0288,-0.029,-0.0292,0,0,0,0,0,0,0,0,0,0,0,0,0,-0.0083,-0.0084,-0.0126,-0.0126,-0.0127,-0.018,-0.0181,-0.0182,-0.0212,-0.0211,-0.0211,-0.0211,-0.0287,-0.0289,-0.0292,0,0,0,0,0,0,0,0,0,0,0,0,0,-0.0118,-0.0084,-0.0126,-0.0146,-0.0149,-0.0179,-0.0181,-0.0182,-0.0212,-0.0211,-0.0211,-0.0211,-0.0286,-0.0289,-0.0292,-0.0316,0,0,-0.0302,-0.0304,0,0,0,0,0,0,0,0,-0.0116,-0.012,-0.0143,-0.0145,-0.0147,-0.0187,-0.0193,-0.0227,-0.0212,-0.019,-0.0211,-0.0211,-0.0255,-0.026,-0.0274,-0.032,-0.0323,-0.0303,-0.0305,-0.0306,-0.0307,0,0,0,0,0,0,0,-0.0114,-0.0118,-0.015,-0.0143,-0.0146,-0.0164,-0.0169,-0.02,-0.0225,-0.0192,-0.0194,-0.0196,-0.0256,-0.0271,-0.0276,-0.0324,-0.0303,-0.0305,-0.0307,-0.0309,-0.0353,-0.0352,0,0,0,0,0,0,-0.0101,-0.0116,-0.0148,-0.0151,-0.0128,-0.0165,-0.017,-0.0176,-0.0224,-0.0231,-0.0196,-0.0197,-0.0265,-0.0272,-0.0279,-0.0257,-0.0306,-0.0309,-0.0311,-0.0353,-0.0352,-0.0352,0,0,0,0,0,0,-0.0099,-0.0103,-0.0146,-0.0132,-0.0139,-0.0165,-0.0172,-0.0177,-0.0181,-0.0227,-0.0234,-0.0193,-0.0266,-0.0274,-0.0286,-0.0262,-0.031,-0.0313,-0.0354,-0.0353,-0.0352,-0.0248,0,0,0,0,0,0,-0.0098,-0.0103,-0.0103,-0.0132,-0.0139,-0.0148,-0.0172,-0.0178,-0.0182,-0.0184,-0.0227,-0.0234,-0.0266,-0.0281,-0.0289,-0.0268,-0.0316,-0.0355,-0.0354,-0.0352,-0.0252,-0.0243,-0.0236,0,0,0,0,0,-0.0097,-0.0087,-0.0102,-0.0106,-0.0138,-0.0147,-0.0153,-0.0173,-0.0182,-0.0178,-0.0201,-0.0232,-0.0278,-0.0283,-0.0293,-0.0272,-0.0356,-0.0354,-0.0352,-0.0256,-0.0245,-0.0236,0,0,0,0,0,0,-0.0066,-0.009,-0.0107,-0.0106,-0.0121,-0.0151,-0.0146,-0.0164,-0.0181,-0.0179,-0.0224,-0.0233,-0.0237,-0.027,-0.0274,-0.0281,-0.0322,-0.0322,-0.0245,-0.0235,-0.0227,-0.0206,-0.0319,0,0,0,0,0,-0.0061,-0.0059,-0.0088,-0.0084,-0.0088,-0.0117,-0.0124,-0.0137,-0.0156,-0.0163,-0.019,-0.0218,-0.0241,-0.0248,-0.0278,-0.028,-0.0318,-0.0274,-0.0265,-0.0258,-0.0248,-0.0283,-0.0277,-0.0346,-0.0346,-0.0346,0,0,-0.0052,-0.0059,-0.0063,-0.0078,-0.009,-0.008,-0.012,-0.0118,-0.0104,-0.0169,-0.0155,-0.0193,-0.0237,-0.0237,-0.0242,-0.0258,-0.0257,-0.0256,-0.0249,-0.0243,-0.0281,-0.0274,-0.0268,-0.0345,-0.0345,-0.0345,0,0,-0.0014,-0.0034,-0.0017,-0.0024,-0.0032,-0.0046,-0.004,-0.0062,-0.0066,-0.0069,-0.0106,-0.0124,-0.0161,-0.0179,-0.0196,-0.0161,-0.0217,-0.0173,-0.0107,-0.014,-0.0135,-0.013,-0.0163,-0.0163,-0.0162,-0.0162,-0.0162,0,-0.0002,0.0019,-0.0013,0.0009,0.0019,-0.0022,0.0009,-0.0005,-0.0026,-0.0019,-0.0048,-0.0092,-0.0131,-0.0126,-0.0113,-0.014,-0.0171,-0.0138,-0.0128,-0.0125,-0.0122,-0.0157,-0.0158,-0.0157,-0.0157,-0.0158,-0.0158,0,0.005,0.0067,0.0083,0.0097,0.0101,0.0122,0.0104,0.0109,0.0095,0.0079,0.0075,0.0015,-0.0008,-0.0024,-0.0059,-0.005,-0.0082,-0.0117,-0.0149,-0.0108,-0.0148,-0.0151,-0.0149,-0.0151,-0.0153,-0.0154,0,0,0.0083,0.0113,0.0122,0.0153,0.0155,0.017,0.0196,0.0212,0.024,0.0198,0.0225,0.0173,0.0133,0.011,0.006,0.0031,0.002,-0.0025,-0.0029,-0.0049,-0.0053,-0.012,-0.013,-0.0013,-0.0013,-0.0013,-0.0086,0,0.0139,0.0211,0.0206,0.0277,0.0316,0.0295,0.0329,0.0334,0.032,0.0332,0.0269,0.0266,0.0187,0.0179,0.0136,0.0049,0.0017,0.0043,-0.0097,-0.0101,-0.0159,-0.0133,-0.0094,-0.016,-0.0089,-0.009,-0.009,0,0.02,0.0246,0.0329,0.039,0.0405,0.0438,0.0491,0.0512,0.0506,0.0494,0.0463,0.0404,0.0361,0.0282,0.0154,0.0174,0.0074,-0.0004,-0.0009,-0.0109,-0.0173,-0.0193,-0.0169,-0.0095,-0.0095,-0.0095,-0.0094,0,0.0268,0.0336,0.0416,0.0434,0.0487,0.0528,0.0557,0.057,0.0606,0.0598,0.0611,0.0531,0.0505,0.0366,0.0196,0.0178,0.0045,-0.0003,-0.0156,-0.0162,-0.0176,-0.0183,-0.009,-0.009,-0.009,-0.009,-0.0089,0,0.0343,0.0404,0.0458,0.0502,0.0599,0.061,0.0703,0.0708,0.0737,0.0796,0.0701,0.0713,0.0525,0.0418,0.0243,0.0037,0.0078,-0.0139,-0.0184,-0.014,-0.0143,-0.0128,-0.0131,-0.0092,-0.0092,-0.0091,-0.0091,0,0.0407,0.0441,0.0532,0.0607,0.0635,0.0707,0.0795,0.0861,0.0869,0.0937,0.0943,0.0863,0.0722,0.0512,0.0298,0.0112,-0.0085,-0.0167,-0.0104,-0.0141,-0.0283,-0.028,-0.0349,-0.0352,-0.0354,-0.0356,-0.0358,0,0.0453,0.0505,0.0603,0.0656,0.0695,0.0797,0.0874,0.0925,0.0988,0.1028,0.1064,0.0965,0.0893,0.054,0.0224,-0.009,-0.0113,-0.0272,-0.0313,-0.0272,-0.0309,-0.0302,-0.0296,-0.0283,-0.0284,-0.0285,-0.0286,0,0.0525,0.0552,0.0623,0.0737,0.083,0.0939,0.1041,0.1106,0.1177,0.122,0.1261,0.1212,0.0899,0.0589,0.0153,-0.0062,-0.0227,-0.0303,-0.0259,-0.0235,-0.022,-0.0253,-0.0247,-0.0293,-0.0292,-0.0292,-0.0291,-0.0291,0.0574,0.0622,0.0708,0.0805,0.0923,0.1051,0.1152,0.1255,0.1363,0.1414,0.1369,0.1294,0.0966,0.0393,0.0054,-0.029,-0.0296,-0.0426,-0.0419,-0.0413,-0.0402,-0.0394,-0.0498,-0.0498,-0.0498,-0.0499,-0.0499,0,0.0616,0.0662,0.0758,0.0883,0.0997,0.1086,0.1244,0.133,0.1454,0.1494,0.1491,0.1138,0.079,0.0446,-0.0067,-0.0411,-0.0406,-0.0507,-0.0411,-0.0403,-0.0396,-0.0381,-0.0473,-0.0474,-0.0474,-0.0475,0,0,0.0637,0.071,0.0733,0.0898,0.1016,0.1242,0.1346,0.1444,0.1505,0.1501,0.1458,0.1313,0.0905,0.0525,0.0094,-0.0165,-0.0207,-0.0228,-0.0218,-0.0046,-0.0035,-0.0327,-0.0294,0,0,0,0,0]}],[{"header":{"parameterUnit":"m.s-1","parameterCategory":2,"la1":30.2991,"la2":30.254,"lo1":-89.0895,"lo2":-89.0444,"dy":0.0017,"dx":0.0017,"nx":28,"ny":28,"refTime":"2025-05-15T03:00:00:Z","depth":"4","parameterNumber":2,"parameterNumberName":"U-component_of_CURRENTS"},"data":[0,0,0,0,0,0,0,0,0,0,0,0,0,0,0,0,0,0,0,0,0,0,0,0,0,0,0,0,0,0,0,0,0,0,0,0,0,0,0,0,0,0,0,0,0,0,0,0,0,0,0,0,0,0,0,0,0,0,0.0793,0.0792,0,0.0772,0.0773,0.0774,0.0935,0.0939,0.0942,0.0945,0.1144,0.1146,0.1148,0,0,0,0,0,0,0,0,0,0,0,0,0,0.0991,0.0988,0.0793,0.0792,0.079,0.0772,0.0773,0.0774,0.0935,0.0939,0.0943,0.0946,0.1143,0.1146,0.1149,0,0,0,0,0,0,0,0,0,0,0,0,0,0.0944,0.0987,0.0794,0.0858,0.0862,0.0772,0.0773,0.0775,0.0934,0.0939,0.0944,0.0948,0.1142,0.1146,0.1149,0.1073,0,0,0.116,0.1161,0,0,0,0,0,0,0,0,0.0947,0.0939,0.085,0.0853,0.0858,0.0849,0.0915,0.088,0.0933,0.0922,0.0945,0.0951,0.1053,0.1064,0.1066,0.1083,0.1091,0.116,0.1162,0.1163,0.1164,0,0,0,0,0,0,0,0.095,0.094,0.0799,0.0847,0.0852,0.0893,0.0893,0.091,0.0975,0.0923,0.0931,0.0905,0.106,0.1062,0.1072,0.1094,0.116,0.1163,0.1165,0.1166,0.1413,0.1418,0,0,0,0,0,0,0.0917,0.0942,0.08,0.0797,0.0899,0.0884,0.0885,0.0859,0.0971,0.0986,0.0901,0.0912,0.1054,0.1068,0.108,0.1257,0.1163,0.1167,0.1169,0.1409,0.1414,0.1419,0,0,0,0,0,0,0.0921,0.0904,0.08,0.0859,0.0847,0.0874,0.0844,0.0855,0.0908,0.0948,0.0973,0.0946,0.1058,0.1075,0.12,0.1257,0.1168,0.1171,0.1404,0.141,0.1417,0.1444,0,0,0,0,0,0,0.0927,0.0906,0.0897,0.0856,0.0842,0.0801,0.0838,0.0851,0.0874,0.0891,0.0993,0.1014,0.1064,0.1195,0.1203,0.126,0.1174,0.1398,0.1407,0.1415,0.1438,0.1451,0.1462,0,0,0,0,0,0.0934,0.0887,0.0897,0.088,0.0822,0.08,0.0801,0.0845,0.0871,0.091,0.1013,0.1014,0.1256,0.12,0.1209,0.1268,0.1394,0.1404,0.1414,0.1432,0.1448,0.1462,0,0,0,0,0,0,0.097,0.0896,0.0907,0.0843,0.0848,0.0824,0.0833,0.085,0.0947,0.1001,0.1047,0.1077,0.1204,0.1238,0.1175,0.1376,0.1332,0.1344,0.1343,0.1358,0.1371,0.1418,0.1177,0,0,0,0,0,0.0962,0.0915,0.0879,0.0837,0.0838,0.0841,0.0839,0.0886,0.0936,0.0984,0.1047,0.1149,0.1235,0.1303,0.1373,0.146,0.1467,0.1518,0.1531,0.154,0.1593,0.1631,0.1649,0.1452,0.1452,0.1452,0,0,0.0939,0.091,0.0872,0.0843,0.0848,0.0864,0.0861,0.0888,0.0943,0.0987,0.1107,0.1175,0.1266,0.1392,0.1453,0.1441,0.1598,0.1553,0.156,0.1609,0.1643,0.1662,0.1678,0.1459,0.1458,0.1457,0,0,0.0905,0.0877,0.0851,0.0849,0.087,0.09,0.0913,0.0938,0.1008,0.1097,0.1171,0.1305,0.1385,0.1508,0.1563,0.1686,0.1645,0.1693,0.1808,0.1842,0.1857,0.1871,0.1868,0.1881,0.1718,0.1719,0.1719,0,0.0915,0.0873,0.0847,0.0844,0.0858,0.0918,0.0947,0.1,0.1081,0.1173,0.1165,0.1378,0.1455,0.1635,0.1716,0.1714,0.1702,0.1724,0.1852,0.1866,0.1879,0.1873,0.1887,0.1721,0.1721,0.1721,0.172,0,0.0851,0.0857,0.0845,0.0878,0.0898,0.0936,0.0996,0.1101,0.1183,0.1253,0.1435,0.1529,0.1683,0.1713,0.176,0.1921,0.1867,0.1832,0.1792,0.1899,0.1888,0.1902,0.1725,0.1724,0.1723,0.1722,0,0,0.0814,0.0813,0.0824,0.0882,0.0937,0.0972,0.1087,0.1241,0.1374,0.1461,0.1599,0.178,0.1851,0.1927,0.1982,0.2044,0.2125,0.2,0.2001,0.1963,0.2163,0.2016,0.2016,0.2079,0.2083,0.2086,0.2101,0,0.0824,0.0858,0.0844,0.0939,0.0987,0.1077,0.1179,0.1332,0.147,0.1624,0.1753,0.1893,0.1916,0.2001,0.2074,0.2123,0.2171,0.2124,0.2102,0.2102,0.1928,0.2032,0.2098,0.2111,0.2114,0.2116,0.2118,0,0.0798,0.0844,0.0921,0.1051,0.1079,0.1157,0.1406,0.1502,0.1726,0.1819,0.1983,0.2043,0.2223,0.2162,0.23,0.2254,0.2247,0.224,0.2239,0.2117,0.1984,0.2,0.2143,0.2141,0.2139,0.2137,0.2136,0,0.0861,0.092,0.1021,0.1037,0.1168,0.1279,0.1397,0.1613,0.1725,0.196,0.2037,0.2218,0.2292,0.2333,0.2364,0.2334,0.2424,0.2364,0.2214,0.22,0.2307,0.2293,0.2435,0.2435,0.2435,0.2434,0.2434,0,0.089,0.0972,0.1072,0.1132,0.1283,0.1357,0.1568,0.1709,0.1886,0.2014,0.2151,0.2223,0.2332,0.2381,0.2392,0.2355,0.2448,0.2273,0.2217,0.2315,0.2302,0.2313,0.2299,0.2435,0.2435,0.2435,0.2435,0,0.0928,0.0982,0.1105,0.1266,0.1318,0.1438,0.1607,0.1732,0.1918,0.2063,0.2117,0.2255,0.2325,0.2383,0.2442,0.2369,0.2359,0.2307,0.2412,0.2354,0.2099,0.2087,0.2156,0.2151,0.2148,0.2144,0.2142,0,0.0938,0.1017,0.1194,0.1238,0.1312,0.1474,0.1558,0.1744,0.1834,0.205,0.2074,0.2202,0.2276,0.2239,0.2314,0.2312,0.2275,0.2237,0.2199,0.2144,0.2083,0.2077,0.207,0.2135,0.2134,0.2133,0.2132,0,0.0959,0.105,0.1134,0.123,0.1317,0.1405,0.1542,0.1599,0.1789,0.1948,0.2008,0.205,0.2107,0.2146,0.2158,0.2148,0.2259,0.2196,0.2203,0.2167,0.212,0.2061,0.2059,0.2119,0.2121,0.2122,0.2123,0,0.0947,0.1004,0.1101,0.1164,0.1232,0.1273,0.14,0.1475,0.1579,0.1814,0.182,0.1956,0.2083,0.2058,0.207,0.2063,0.2028,0.1946,0.1965,0.1981,0.1919,0.1833,0.1731,0,0,0,0,0,0.0861,0.091,0.1,0.1046,0.1104,0.1148,0.1309,0.143,0.1617,0.1615,0.1727,0.178,0.1825,0.188,0.1837,0.1975,0.2021,0.1913,0.1933,0.2045,0.206,0.2004,0,0,0,0,0,0,0.0796,0.0877,0.0951,0.0885,0.09,0.0952,0.1056,0.1219,0.1245,0.1454,0.1488,0.1639,0.1705,0.1816,0.1783,0.1804,0.1774,0.2005,0.2,0.2036,0.205,0.2062,0.201,0,0,0,0,0]},{"header":{"parameterUnit":"m.s-1","parameterCategory":2,"la1":30.2991,"la2":30.254,"lo1":-89.0895,"lo2":-89.0444,"dy":0.0017,"dx":0.0017,"nx":28,"ny":28,"refTime":"2025-05-15T03:00:00:Z","depth":"4","parameterNumber":3,"parameterNumberName":"V-component_of_CURRENTS"},"data":[0,0,0,0,0,0,0,0,0,0,0,0,0,0,0,0,0,0,0,0,0,0,0,0,0,0,0,0,0,0,0,0,0,0,0,0,0,0,0,0,0,0,0,0,0,0,0,0,0,0,0,0,0,0,0,0,0,0,0.0283,0.0284,0,0.0303,0.0303,0.0303,0.0239,0.0238,0.0236,0.0235,0.0138,0.0137,0.0135,0,0,0,0,0,0,0,0,0,0,0,0,0,0.0116,0.0119,0.0283,0.0284,0.0284,0.0303,0.0303,0.0303,0.0239,0.0237,0.0236,0.0234,0.0138,0.0137,0.0135,0,0,0,0,0,0,0,0,0,0,0,0,0,0.0163,0.0121,0.0283,0.0259,0.0257,0.0303,0.0303,0.0303,0.024,0.0237,0.0235,0.0233,0.0139,0.0137,0.0135,0.0167,0,0,0.0129,0.0129,0,0,0,0,0,0,0,0,0.016,0.0168,0.0262,0.0261,0.0259,0.0271,0.0209,0.0253,0.024,0.0241,0.0235,0.0232,0.0177,0.0172,0.0174,0.0163,0.0159,0.0129,0.0128,0.0127,0.0127,0,0,0,0,0,0,0,0.0157,0.0167,0.0285,0.0263,0.0261,0.0222,0.0227,0.0217,0.0214,0.024,0.0237,0.0249,0.0174,0.0176,0.0171,0.0157,0.0129,0.0128,0.0127,0.0126,0.0005,0.0003,0,0,0,0,0,0,0.0173,0.0165,0.0285,0.0287,0.0209,0.0228,0.0232,0.0265,0.0217,0.021,0.0251,0.0246,0.0181,0.0174,0.0167,0.0123,0.0127,0.0126,0.0125,0.0007,0.0005,0.0002,0,0,0,0,0,0,0.0169,0.0184,0.0284,0.0228,0.0239,0.0234,0.0271,0.0267,0.0264,0.0227,0.0216,0.0252,0.0179,0.017,0.0116,0.0121,0.0125,0.0123,0.001,0.0006,0.0003,0.0084,0,0,0,0,0,0,0.0165,0.0183,0.0208,0.0231,0.0243,0.0309,0.0273,0.0269,0.0278,0.0271,0.0225,0.0214,0.0176,0.0119,0.0114,0.0119,0.0122,0.0012,0.0008,0.0004,0.0084,0.0084,0.0084,0,0,0,0,0,0.0159,0.0217,0.0209,0.0223,0.0279,0.031,0.0312,0.0296,0.028,0.0284,0.0222,0.0215,0.009,0.0117,0.0112,0.0116,0.0014,0.0009,0.0005,0.0084,0.0084,0.0084,0,0,0,0,0,0,0.0159,0.0218,0.0209,0.0281,0.0288,0.0301,0.0323,0.0307,0.027,0.0258,0.0204,0.0188,0.014,0.0106,0.0137,0.0058,0.0046,0.004,0.0108,0.0108,0.0108,0.0122,0.012,0,0,0,0,0,0.0174,0.0232,0.0255,0.0309,0.0322,0.032,0.0331,0.0319,0.0297,0.0281,0.0242,0.0181,0.0122,0.0097,0.0048,0.0026,-0.0017,0.0013,0.0013,0.0014,0.0014,-0.0062,-0.0067,-0.0013,-0.0013,-0.0013,0,0,0.019,0.023,0.0262,0.0312,0.0324,0.0337,0.032,0.035,0.0336,0.0277,0.0245,0.0191,0.0111,0.0066,0.0042,0.0039,-0.0025,0.0008,0.001,0.001,-0.0067,-0.0072,-0.0076,-0.0017,-0.0016,-0.0015,0,0,0.0244,0.0288,0.0338,0.0345,0.037,0.0369,0.0378,0.0384,0.0362,0.0328,0.0263,0.0205,0.014,0.0078,0.0036,0.0008,-0.0023,-0.001,0.0013,-0.006,-0.0063,-0.0067,-0.0117,-0.0125,-0.0008,-0.0008,-0.0007,0,0.0247,0.0318,0.0351,0.0378,0.0385,0.0383,0.0399,0.0386,0.036,0.0335,0.0317,0.0189,0.0141,0.0059,0.004,0.0015,-0.0029,0.0034,-0.0054,-0.0059,-0.0064,-0.0114,-0.0125,-0.0004,-0.0005,-0.0005,-0.0005,0,0.0321,0.0356,0.0391,0.042,0.0427,0.0455,0.0436,0.0426,0.0401,0.0371,0.0297,0.022,0.014,0.0115,0.0073,0.0006,-0.0013,-0.0038,-0.0036,-0.0064,-0.0116,-0.0129,0.0001,-0.0001,-0.0002,-0.0003,0,0,0.0369,0.0429,0.0434,0.0432,0.045,0.046,0.0448,0.0428,0.0406,0.036,0.0312,0.0218,0.0187,0.0134,0.0078,0.0018,-0.0044,-0.0017,-0.0023,-0.0034,-0.0194,-0.0165,-0.0176,-0.0081,-0.0083,-0.0085,-0.0209,0,0.0401,0.0452,0.0478,0.0491,0.0502,0.0489,0.0474,0.0444,0.041,0.0363,0.0281,0.0217,0.019,0.0153,0.009,-0.0017,-0.0077,-0.0008,-0.0194,-0.02,-0.0145,-0.019,-0.0092,-0.0218,-0.0221,-0.0223,-0.0225,0,0.044,0.0471,0.05,0.0503,0.051,0.0516,0.0487,0.0474,0.0409,0.0378,0.0313,0.025,0.0158,0.0134,-0.0036,0.001,-0.0084,-0.0162,-0.017,-0.018,-0.0195,-0.0196,-0.0248,-0.0246,-0.0245,-0.0243,-0.0242,0,0.0424,0.0471,0.0494,0.0496,0.0509,0.0512,0.0518,0.0476,0.0461,0.0391,0.0365,0.0252,0.0187,0.006,-0.0077,-0.0067,-0.0269,-0.0279,-0.0345,-0.0343,-0.0362,-0.0357,-0.0413,-0.0413,-0.0412,-0.0412,-0.0412,0,0.0426,0.0435,0.0492,0.0497,0.0514,0.0518,0.0523,0.0505,0.0477,0.0458,0.0381,0.0327,0.0162,0.0036,-0.0086,-0.0243,-0.0277,-0.0349,-0.0381,-0.0327,-0.0316,-0.037,-0.0364,-0.0417,-0.0416,-0.0415,-0.0414,0,0.0376,0.042,0.0441,0.0486,0.0504,0.051,0.055,0.054,0.0527,0.0498,0.0479,0.0362,0.0217,0.0055,-0.0164,-0.025,-0.0409,-0.0462,-0.038,-0.0403,-0.0431,-0.0419,-0.0544,-0.0544,-0.0545,-0.0545,-0.0545,0,0.0348,0.036,0.0431,0.0453,0.048,0.0511,0.0528,0.0551,0.0557,0.052,0.0497,0.0364,0.0276,-0.0,-0.0171,-0.0398,-0.043,-0.0514,-0.0481,-0.0429,-0.0448,-0.0436,-0.0425,-0.0545,-0.0545,-0.0545,-0.0545,0,0.0283,0.032,0.0349,0.0414,0.0451,0.0492,0.0537,0.0558,0.0582,0.0567,0.051,0.0378,0.0212,0.0012,-0.0166,-0.0332,-0.0457,-0.0516,-0.0517,-0.0486,-0.0432,-0.0448,-0.0436,-0.0546,-0.0546,-0.0546,-0.0546,0,0.0235,0.0248,0.031,0.0369,0.0413,0.0468,0.0505,0.0536,0.0556,0.0558,0.053,0.0374,0.0278,0.0043,-0.0124,-0.0274,-0.0309,-0.0361,-0.037,-0.0372,-0.0276,-0.0179,-0.0251,0,0,0,0,0,0.0194,0.0221,0.026,0.0341,0.0388,0.0434,0.0499,0.0539,0.0591,0.0561,0.0564,0.0426,0.0196,0.0079,-0.0064,-0.0143,-0.0351,-0.0318,-0.0419,-0.0549,-0.0548,-0.0462,0,0,0,0,0,0,0.0168,0.0193,0.0245,0.0308,0.0365,0.0424,0.0478,0.0519,0.0522,0.0548,0.0428,0.0387,0.0157,0.0283,-0.0068,-0.0116,-0.0201,-0.0422,-0.0426,-0.0549,-0.0549,-0.0548,-0.046,0,0,0,0,0]}]]